GW0861 Weather Reports


Display with metric or nautical units.
time (UTC)temp
F
wind
direction
speed
MPH
gust
MPH
rain 1hr
in
rain 24hr
in
rain mn
in
humidity
%
barometer
mb
20260905234610 66 152 0.0 4.0 0.00 0.06 0.05 77 1015.1
20260905234342 66 28 1.0 5.0 0.00 0.06 0.05 76 1015.1
20260905233602 66 23 1.0 6.0 0.00 0.06 0.05 75 1015.0
20260905233335 67 41 1.0 6.0 0.00 0.06 0.05 75 1015.0
20260905232602 67 337 1.0 5.0 0.00 0.06 0.05 74 1015.0
20260905232103 67 69 0.0 5.0 0.00 0.07 0.05 74 1015.0
20260905231601 68 185 0.0 9.0 0.00 0.07 0.05 73 1015.1
20260905231320 68 330 2.0 9.0 0.00 0.07 0.05 72 1015.1
20260905230601 68 282 2.0 7.0 0.00 0.07 0.05 72 1015.0
20260905230549 69 172 3.0 7.0 0.00 0.07 0.05 71 1015.1
20260905225600 69 200 2.0 7.0 0.00 0.07 0.05 71 1015.0
20260905225101 70 326 1.0 7.0 0.00 0.07 0.05 70 1015.0
20260905224836 71 113 0.0 5.0 0.00 0.07 0.05 69 1015.0
20260905224101 71 1 2.0 5.0 0.00 0.07 0.05 68 1014.9
20260905223601 71 234 1.0 4.0 0.00 0.07 0.05 67 1015.1
20260905223101 72 0 1.0 3.0 0.00 0.07 0.05 66 1015.0
20260905222600 72 345 0.0 4.0 0.01 0.07 0.05 66 1015.1
20260905222101 73 247 0.0 5.0 0.01 0.07 0.05 65 1014.8
20260905221602 73 257 1.0 5.0 0.01 0.07 0.05 64 1014.7
20260905221102 73 97 0.0 7.0 0.01 0.07 0.05 64 1014.7
20260905220839 73 310 1.0 7.0 0.01 0.07 0.05 65 1014.8
20260905215832 73 299 3.0 6.0 0.01 0.06 0.05 65 1014.7
20260905215103 73 324 1.0 4.0 0.01 0.06 0.05 66 1014.6
20260905215056 72 338 1.0 4.0 0.01 0.06 0.05 66 1014.6
20260905214316 72 331 0.0 4.0 0.01 0.06 0.05 67 1014.5
20260905213544 72 255 0.0 4.0 0.01 0.06 0.05 69 1014.5
20260905213044 72 138 0.0 4.0 0.01 0.06 0.05 69 1014.4
20260905212542 72 254 3.0 4.0 0.00 0.06 0.04 66 1014.5
20260905212042 72 329 0.0 4.0 0.00 0.06 0.04 69 1014.4
20260905211542 72 321 1.0 4.0 0.00 0.06 0.04 69 1014.4
20260905211042 72 326 0.0 5.0 0.00 0.06 0.04 67 1014.4
20260905211030 72 305 0.0 7.0 0.00 0.07 0.04 66 1014.2
20260905210042 73 302 1.0 7.0 0.00 0.07 0.04 65 1014.2
20260905205543 73 336 0.0 5.0 0.00 0.07 0.04 65 1014.4
20260905205042 73 345 2.0 5.0 0.00 0.07 0.04 66 1014.5
20260905204807 73 303 1.0 6.0 0.00 0.07 0.04 65 1014.4
20260905203542 73 344 2.0 7.0 0.00 0.07 0.04 68 1014.4
20260905203042 73 333 1.0 7.0 0.00 0.07 0.04 66 1014.5
20260905202541 73 233 1.0 7.0 0.00 0.07 0.04 66 1014.4
20260905202042 72 281 1.0 6.0 0.00 0.07 0.04 68 1014.5
20260905201542 72 307 2.0 5.0 0.00 0.07 0.04 67 1014.4
20260905201043 72 307 1.0 3.0 0.00 0.07 0.04 67 1014.4
20260905200559 72 52 1.0 5.0 0.00 0.07 0.04 66 1014.4
20260905200555 73 269 1.0 5.0 0.00 0.07 0.04 66 1014.5
20260905200547 72 62 1.0 5.0 0.00 0.07 0.04 67 1014.5
20260905195531 73 358 2.0 5.0 0.00 0.07 0.04 65 1014.4
20260905194542 73 107 0.0 5.0 0.00 0.07 0.04 65 1014.4
20260905194043 73 278 0.0 6.0 0.00 0.07 0.04 63 1014.4
20260905194033 73 0 1.0 7.0 0.00 0.07 0.04 65 1014.4
20260905193042 73 314 1.0 7.0 0.00 0.07 0.04 64 1014.4
20260905192819 73 302 3.0 6.0 0.00 0.07 0.04 67 1014.4
20260905192537 73 327 1.0 9.0 0.00 0.07 0.04 64 1014.5
20260905191544 73 189 1.0 9.0 0.00 0.07 0.04 64 1014.5
20260905191318 73 274 1.0 6.0 0.00 0.08 0.04 64 1014.2
20260905190822 74 7 2.0 7.0 0.00 0.08 0.04 62 1014.4
20260905190043 74 28 3.0 7.0 0.00 0.08 0.04 60 1014.5
20260905185542 74 310 2.0 10.0 0.00 0.08 0.04 60 1014.5
20260905185306 74 307 4.0 10.0 0.00 0.08 0.04 70 1014.5
20260905183543 73 86 2.0 7.0 0.00 0.08 0.04 63 1014.5
20260905183042 74 14 2.0 7.0 0.00 0.08 0.04 62 1014.6
20260905182542 74 1 2.0 9.0 0.00 0.08 0.04 65 1014.6
20260905182042 74 17 4.0 10.0 0.00 0.08 0.04 62 1014.6
20260905181542 74 309 2.0 10.0 0.00 0.08 0.04 65 1014.5
20260905181307 74 275 1.0 5.0 0.00 0.08 0.04 65 1014.4
20260905180544 74 282 2.0 4.0 0.00 0.08 0.04 65 1014.6
20260905180100 73 49 1.0 7.0 0.00 0.08 0.04 63 1014.6
20260905180053 73 165 0.0 7.0 0.00 0.08 0.04 67 1014.6
20260905175042 73 4 0.0 9.0 0.00 0.08 0.04 62 1014.7
20260905174542 73 274 5.0 9.0 0.00 0.08 0.04 63 1014.6
20260905174042 73 72 1.0 6.0 0.00 0.08 0.04 68 1014.6
20260905173542 73 41 2.0 5.0 0.00 0.08 0.04 65 1014.7
20260905173043 72 303 3.0 10.0 0.00 0.08 0.04 69 1014.7
20260905172801 72 244 4.0 10.0 0.00 0.08 0.04 70 1014.7
20260905172042 72 261 2.0 9.0 0.00 0.08 0.04 70 1014.8
20260905171543 72 354 2.0 9.0 0.00 0.08 0.04 70 1014.8
20260905171042 72 331 0.0 4.0 0.00 0.08 0.04 68 1014.9
20260905171014 72 355 0.0 7.0 0.00 0.08 0.04 67 1014.8
20260905165542 73 319 2.0 9.0 0.00 0.08 0.04 66 1015.0
20260905165042 72 247 0.0 9.0 0.00 0.08 0.04 69 1015.0
20260905164542 72 257 0.0 6.0 0.00 0.08 0.04 71 1015.0
20260905164042 71 320 3.0 6.0 0.00 0.08 0.04 70 1015.1
20260905163542 71 321 4.0 6.0 0.00 0.08 0.04 70 1015.2
20260905163522 71 289 0.0 7.0 0.00 0.08 0.04 69 1015.2
20260905162543 71 290 4.0 7.0 0.01 0.08 0.04 70 1015.2
20260905162043 71 343 3.0 6.0 0.01 0.08 0.04 68 1015.2
20260905161814 71 345 2.0 7.0 0.01 0.08 0.04 69 1015.2
20260905161319 71 27 3.0 7.0 0.01 0.08 0.04 68 1015.2
20260905161040 71 59 3.0 9.0 0.01 0.08 0.04 67 1015.1
20260905160739 70 324 2.0 9.0 0.01 0.09 0.04 72 1015.0
20260905155536 70 159 0.0 9.0 0.01 0.08 0.04 73 1015.1
20260905154542 70 295 2.0 9.0 0.01 0.08 0.04 70 1015.1
20260905154041 71 305 2.0 6.0 0.01 0.08 0.04 69 1015.0
20260905153542 71 290 2.0 6.0 0.01 0.08 0.04 68 1015.1
20260905153042 71 204 2.0 7.0 0.01 0.08 0.04 68 1015.2
20260905152542 71 16 2.0 7.0 0.00 0.08 0.03 72 1015.1
20260905152306 70 338 1.0 6.0 0.00 0.08 0.03 76 1015.1
20260905151543 70 353 2.0 9.0 0.00 0.08 0.03 76 1015.1
20260905151042 70 310 3.0 11.0 0.00 0.08 0.03 76 1015.2
20260905150542 70 274 6.0 11.0 0.00 0.08 0.03 74 1015.3
20260905150042 70 336 3.0 10.0 0.00 0.08 0.03 74 1015.3
20260905145542 69 217 4.0 10.0 0.00 0.08 0.03 75 1015.3
20260905145530 68 305 2.0 6.0 0.00 0.08 0.03 78 1015.4
20260905144542 68 348 2.0 13.0 0.00 0.08 0.03 78 1015.4
20260905144044 68 63 6.0 13.0 0.00 0.08 0.03 76 1015.4
20260905143542 67 353 3.0 9.0 0.00 0.08 0.03 81 1015.3
20260905143042 67 255 2.0 9.0 0.00 0.08 0.03 81 1015.2
20260905142541 66 303 3.0 9.0 0.00 0.08 0.03 84 1015.2
20260905142042 66 343 3.0 7.0 0.00 0.08 0.03 85 1015.3
20260905141542 65 296 2.0 9.0 0.00 0.08 0.03 85 1015.4
20260905141042 65 1 1.0 9.0 0.00 0.08 0.03 87 1015.3
20260905140542 65 353 2.0 5.0 0.00 0.08 0.03 92 1015.3
20260905140042 64 276 2.0 4.0 0.00 0.08 0.03 93 1015.2
20260905135541 64 341 0.0 4.0 0.00 0.08 0.03 93 1015.2
20260905135043 63 230 1.0 3.0 0.00 0.08 0.03 92 1015.2
20260905134542 63 358 1.0 6.0 0.00 0.08 0.03 93 1015.2
20260905134042 62 234 2.0 7.0 0.00 0.08 0.03 93 1015.1
20260905133541 62 16 2.0 7.0 0.00 0.08 0.03 94 1015.2
20260905133042 62 333 0.0 7.0 0.00 0.08 0.03 95 1015.2
20260905132542 62 307 3.0 7.0 0.00 0.08 0.03 95 1015.3
20260905132041 62 320 1.0 4.0 0.00 0.08 0.03 96 1015.2
20260905131542 62 271 0.0 4.0 0.00 0.08 0.03 96 1015.0
20260905131042 62 307 1.0 5.0 0.00 0.08 0.03 96 1015.1
20260905130808 62 300 2.0 5.0 0.00 0.08 0.03 96 1015.1
20260905130041 61 320 0.0 5.0 0.00 0.09 0.03 97 1015.2
20260905125541 61 289 2.0 5.0 0.00 0.09 0.03 97 1015.2
20260905125042 61 348 0.0 3.0 0.00 0.09 0.03 97 1015.1
20260905124816 61 289 0.0 5.0 0.00 0.09 0.03 97 1015.1
20260905124041 60 289 2.0 5.0 0.00 0.09 0.03 96 1015.2
20260905123542 60 275 2.0 7.0 0.00 0.09 0.03 96 1015.2
20260905123043 60 336 2.0 7.0 0.00 0.09 0.03 97 1015.0
20260905122543 60 10 2.0 5.0 0.00 0.09 0.03 97 1015.1
20260905122041 60 306 2.0 5.0 0.00 0.09 0.03 96 1015.2
20260905121542 60 282 3.0 5.0 0.00 0.09 0.03 96 1015.1
20260905121042 60 345 2.0 5.0 0.00 0.09 0.03 96 1015.2
20260905120541 60 255 2.0 9.0 0.01 0.09 0.03 96 1015.2
20260905120043 60 288 4.0 9.0 0.01 0.09 0.03 96 1015.3
20260905115542 59 306 2.0 6.0 0.01 0.08 0.03 96 1015.2
20260905115318 59 261 2.0 6.0 0.01 0.08 0.03 96 1015.2
20260905114814 59 310 3.0 5.0 0.01 0.08 0.03 96 1015.3
20260905114041 59 340 2.0 5.0 0.01 0.08 0.03 96 1015.3
20260905113541 59 296 1.0 4.0 0.01 0.08 0.03 96 1015.2
20260905113041 59 313 3.0 4.0 0.01 0.09 0.03 96 1015.0
20260905112541 58 300 1.0 5.0 0.01 0.09 0.03 96 1015.0
20260905112042 58 295 1.0 5.0 0.01 0.09 0.03 96 1014.9
20260905111541 58 272 2.0 4.0 0.01 0.09 0.03 96 1014.6
20260905111042 58 324 1.0 4.0 0.01 0.09 0.03 96 1014.7
20260905110541 58 336 1.0 3.0 0.00 0.09 0.02 95 1014.5
20260905110042 58 295 1.0 3.0 0.00 0.09 0.02 95 1014.4
20260905105542 58 295 1.0 3.0 0.00 0.09 0.02 95 1014.4
20260905105318 58 295 2.0 3.0 0.00 0.09 0.02 95 1014.2
20260905104541 58 312 2.0 4.0 0.00 0.09 0.02 95 1014.1
20260905104103 58 296 2.0 4.0 0.00 0.09 0.02 95 1014.1
20260905104055 58 312 2.0 4.0 0.00 0.09 0.02 95 1014.1
20260905103041 58 296 2.0 4.0 0.00 0.09 0.02 95 1014.2
20260905102543 58 296 3.0 3.0 0.00 0.09 0.02 95 1014.4
20260905102316 58 296 2.0 3.0 0.00 0.09 0.02 95 1014.2
20260905101541 58 296 2.0 3.0 0.00 0.09 0.02 95 1013.9
20260905101042 58 296 1.0 2.0 0.00 0.10 0.02 95 1014.0
20260905100541 58 296 2.0 3.0 0.00 0.10 0.02 95 1014.0
20260905100041 58 296 2.0 3.0 0.00 0.10 0.02 95 1013.9
20260905095542 58 296 2.0 3.0 0.00 0.10 0.02 94 1013.9
20260905095042 58 296 2.0 3.0 0.00 0.10 0.02 94 1013.9
20260905094542 58 296 1.0 3.0 0.00 0.10 0.02 94 1013.9
20260905094319 58 296 2.0 4.0 0.00 0.10 0.02 94 1014.0
20260905093542 59 296 2.0 4.0 0.00 0.10 0.02 94 1013.9
20260905093040 59 296 3.0 4.0 0.00 0.10 0.02 94 1013.9
20260905092541 59 296 2.0 3.0 0.00 0.10 0.02 94 1013.8
20260905092041 59 296 2.0 3.0 0.00 0.10 0.02 94 1013.9
20260905091542 59 296 2.0 3.0 0.00 0.10 0.02 94 1013.8
20260905091042 59 285 2.0 4.0 0.00 0.11 0.02 94 1013.7
20260905090542 59 285 2.0 4.0 0.01 0.11 0.02 94 1013.6
20260905090041 59 299 2.0 4.0 0.01 0.11 0.02 94 1013.6
20260905085814 59 316 2.0 3.0 0.01 0.10 0.02 94 1013.6
20260905085042 60 316 2.0 3.0 0.01 0.10 0.02 94 1013.6
20260905084542 60 316 1.0 3.0 0.01 0.10 0.02 94 1013.6
20260905084316 60 300 1.0 3.0 0.01 0.10 0.02 93 1013.6
20260905083541 60 300 1.0 4.0 0.01 0.10 0.02 93 1013.6
20260905083042 60 281 2.0 4.0 0.01 0.10 0.02 93 1013.7
20260905082542 60 295 0.0 4.0 0.01 0.10 0.02 93 1013.6
20260905082316 60 290 1.0 4.0 0.01 0.10 0.02 93 1013.7
20260905081817 60 306 1.0 3.0 0.01 0.10 0.02 93 1013.8
20260905081041 60 283 1.0 4.0 0.01 0.11 0.02 93 1013.7
20260905080541 60 307 2.0 4.0 0.00 0.11 0.01 93 1013.8
20260905080041 60 298 1.0 5.0 0.00 0.11 0.01 93 1013.9
20260905075541 60 295 2.0 5.0 0.00 0.11 0.01 92 1013.9
20260905075044 60 303 1.0 4.0 0.00 0.11 0.01 92 1013.9
20260905074814 60 316 1.0 4.0 0.00 0.11 0.01 92 1013.9
20260905074042 60 276 2.0 5.0 0.00 0.11 0.01 92 1013.8
20260905073816 60 290 1.0 5.0 0.00 0.11 0.01 91 1013.9
20260905073041 60 299 2.0 3.0 0.00 0.11 0.01 91 1013.9
20260905072542 60 306 1.0 4.0 0.00 0.11 0.01 91 1014.0
20260905072041 60 323 1.0 4.0 0.00 0.11 0.01 91 1014.1
20260905071541 61 309 2.0 4.0 0.00 0.12 0.01 91 1014.1
20260905071040 61 337 2.0 4.0 0.00 0.12 0.01 91 1014.2
20260905070541 61 310 2.0 4.0 0.00 0.12 0.01 91 1014.1
20260905070042 61 302 1.0 3.0 0.00 0.12 0.01 91 1014.4
20260905065542 61 313 1.0 3.0 0.00 0.12 0.01 91 1014.4
20260905065041 61 289 1.0 3.0 0.00 0.12 0.01 91 1014.2
20260905064316 61 307 0.0 3.0 0.00 0.12 0.01 91 1014.5
20260905063541 62 302 1.0 4.0 0.00 0.12 0.01 91 1014.6
20260905063042 62 320 1.0 4.0 0.00 0.12 0.01 90 1014.5
20260905062541 62 333 2.0 4.0 0.00 0.13 0.01 90 1014.7
20260905062041 62 316 2.0 4.0 0.00 0.13 0.01 90 1014.7
20260905061542 62 316 1.0 4.0 0.00 0.13 0.01 90 1014.6
20260905061043 62 272 2.0 4.0 0.00 0.13 0.01 89 1014.7
20260905060540 62 298 2.0 4.0 0.00 0.13 0.01 89 1014.7
20260905060040 62 329 2.0 4.0 0.00 0.13 0.01 89 1014.7
20260905055541 62 303 2.0 4.0 0.01 0.13 0.01 89 1014.8
20260905055041 63 309 2.0 3.0 0.01 0.13 0.01 88 1014.7
20260905054541 63 285 1.0 3.0 0.01 0.13 0.01 88 1014.8
20260905054318 63 309 1.0 4.0 0.01 0.13 0.01 87 1014.8
20260905053540 63 329 1.0 4.0 0.01 0.13 0.01 88 1014.9
20260905053041 63 309 2.0 4.0 0.01 0.13 0.01 87 1014.9
20260905052542 63 300 2.0 4.0 0.01 0.13 0.01 87 1015.0
20260905052041 64 295 1.0 5.0 0.01 0.13 0.01 87 1014.9
20260905051817 64 314 2.0 5.0 0.01 0.13 0.01 87 1015.0
20260905051041 64 289 1.0 3.0 0.01 0.14 0.01 86 1015.0
20260905050541 64 337 0.0 3.0 0.01 0.14 0.01 87 1015.0
20260905050042 64 337 1.0 3.0 0.01 0.14 0.01 87 1015.0
20260905045542 64 329 1.0 3.0 0.00 0.13 0.00 87 1015.0
20260905045040 65 288 1.0 3.0 0.00 0.13 0.00 86 1015.0
20260905044541 65 289 1.0 3.0 0.00 0.13 0.00 86 1015.1
20260905044040 65 286 1.0 4.0 0.00 0.13 0.00 86 1015.1
20260905043541 65 309 1.0 4.0 0.00 0.13 0.00 86 1015.1
20260905043041 65 329 1.0 6.0 0.00 0.13 0.00 85 1015.0
20260905042541 65 306 1.0 6.0 0.00 0.13 0.00 85 1015.0
20260905042317 65 290 1.0 3.0 0.00 0.14 0.00 85 1015.0
20260905041814 65 288 1.0 4.0 0.00 0.14 0.00 85 1015.0
20260905041041 65 288 1.0 4.0 0.00 0.14 0.00 85 1014.9
20260905040820 65 296 2.0 5.0 0.00 0.14 0.00 85 1015.0
20260905040043 65 331 2.0 5.0 0.00 0.14 0.00 84 1015.1
20260905035541 65 290 2.0 5.0 0.00 0.14 0.14 84 1015.0
20260905035042 65 331 2.0 5.0 0.00 0.14 0.14 84 1014.9
20260905034540 66 0 3.0 3.0 0.00 0.14 0.14 84 1014.9
20260905034041 66 312 1.0 5.0 0.00 0.15 0.14 84 1014.9
20260905033541 66 295 2.0 5.0 0.00 0.15 0.14 83 1014.9
20260905033041 66 288 1.0 5.0 0.00 0.15 0.14 83 1015.0
20260905032541 66 283 3.0 5.0 0.00 0.15 0.14 83 1015.0
20260905032041 66 309 0.0 3.0 0.00 0.15 0.14 83 1015.0
20260905031541 66 310 1.0 5.0 0.00 0.15 0.14 84 1015.0
20260905031041 66 27 1.0 5.0 0.00 0.15 0.14 83 1014.9
20260905030542 66 306 1.0 3.0 0.01 0.16 0.14 83 1014.9
20260905030042 66 331 0.0 3.0 0.01 0.16 0.14 83 1014.9
20260905025543 66 319 1.0 4.0 0.01 0.15 0.14 83 1014.9
20260905025315 66 357 0.0 4.0 0.01 0.15 0.14 83 1014.8
20260905024540 66 7 0.0 4.0 0.01 0.15 0.14 82 1014.8
20260905024042 66 334 1.0 5.0 0.01 0.15 0.14 82 1014.9
20260905023541 66 305 2.0 5.0 0.01 0.15 0.14 82 1015.0
20260905023041 66 0 2.0 6.0 0.01 0.16 0.14 82 1015.0
20260905022541 66 299 2.0 7.0 0.01 0.16 0.14 82 1015.0
20260905022040 66 286 2.0 7.0 0.01 0.16 0.14 83 1015.0
20260905021540 67 255 1.0 4.0 0.01 0.16 0.14 83 1014.9
20260905021041 67 27 1.0 4.0 0.01 0.16 0.13 84 1014.8
20260905020540 67 296 1.0 4.0 0.00 0.16 0.13 84 1015.0
20260905020316 67 312 0.0 7.0 0.00 0.17 0.13 83 1015.0
20260905015814 67 312 2.0 7.0 0.00 0.17 0.13 83 1014.9
20260905015041 67 18 3.0 5.0 0.00 0.17 0.13 83 1014.9
20260905014540 67 39 0.0 4.0 0.00 0.17 0.13 84 1014.9
20260905014041 67 324 2.0 4.0 0.00 0.17 0.13 84 1015.0
20260905013541 67 358 1.0 4.0 0.00 0.17 0.13 84 1015.0
20260905013308 67 274 1.0 4.0 0.00 0.17 0.13 83 1015.0
20260905012814 67 3 2.0 4.0 0.00 0.18 0.13 84 1015.1
20260905012317 68 255 0.0 9.0 0.00 0.18 0.13 84 1015.2
20260905011540 68 44 2.0 9.0 0.00 0.18 0.13 83 1015.2
20260905011532 68 331 2.0 6.0 0.00 0.18 0.13 83 1015.2
20260905010800 68 261 2.0 5.0 0.00 0.18 0.13 83 1015.2
20260905010041 68 27 1.0 5.0 0.00 0.19 0.13 82 1015.3
20260905005541 68 300 1.0 7.0 0.00 0.19 0.13 82 1015.3
20260905005040 68 338 2.0 7.0 0.00 0.19 0.13 81 1015.1
20260905004542 69 330 2.0 6.0 0.00 0.19 0.13 81 1015.1
20260905004537 69 314 2.0 6.0 0.00 0.19 0.13 81 1015.1
20260905003540 69 302 2.0 5.0 0.00 0.20 0.13 81 1015.1
20260905003040 69 347 2.0 5.0 0.00 0.20 0.13 80 1015.1
20260905002540 69 243 1.0 5.0 0.00 0.20 0.13 79 1015.0
20260905002041 69 286 0.0 3.0 0.01 0.20 0.13 79 1014.9
20260905001540 70 338 0.0 5.0 0.01 0.20 0.13 78 1014.8
20260905001040 70 75 1.0 5.0 0.01 0.21 0.13 78 1014.7
20260905000540 70 351 0.0 4.0 0.01 0.21 0.13 78 1014.8
20260905000040 70 90 1.0 6.0 0.01 0.21 0.13 78 1014.8
20260904235540 70 334 0.0 10.0 0.01 0.20 0.13 77 1014.7
20260904235040 70 269 2.0 10.0 0.01 0.21 0.13 76 1014.6